IRIDIUM 33 DEB, 34375

Orbit data source: Space-Track

IRIDIUM 33 DEB, 34375 is space debris in LEO originally from a launch on Sun, 14 Sep 1997 UTC launched from the Tyuratam Missile And Space Complex (TTMTR). The debris from Iridium 33, an American commercial communications satellite, has been tracked extensively since its accidental collision with the defunct Russian satellite Cosmos 2251 in 2009. This event, occurring at high speed in low Earth orbit (LEO), generated thousands of pieces of space debris, significantly increasing the risk of further collisions. The Iridium 33 debris cloud has impacted space traffic management and orbital debris mitigation strategies, making it a subject of ongoing study in space situational awareness.

Loading next visibility...
Identifier
34375, 1997-051FT
Orbit
LEO
Country
Flag of USUS
Related business
Manufacturer
Unknown
Mission
Spacecraft
Bus & Motor
Unknown
Mass
Unknown
Launch date (UTC)
1997-09-14 (28 years ago)
Launch vehicle
Unknown
Launch site
Tyuratam Missile And Space Complex (TTMTR)
Object type
Payload
Rocket body
Debris
Shape & HBR
Unknown shape, 0.1 m
Radar Cross Section
Small (<0.1 m²)

Expand to show TLE details & history
Last TLE update: 18 hours ago

TLE from 18 hours ago
0 IRIDIUM 33 DEB
1 34375U 97051FT  25350.49673936  .00000869  00000-0  39364-3 0  9997
2 34375  86.4323 181.1851 0103515 114.9637 275.7525 14.17999291867658
Epoch: 2025-12-16T11:55Z
TLE epoch observation values (Epoch: 2025-12-16T11:55:18.280Z)
Latitude
29.5193°
Longitude
-81.00876°
Altitude
829.198 km
Speed
7.444 km/s
True Right ascension
12h 12m 47s
True Declination
29° 22' 25"
Sunlit
Object was in daylight at epoch
Visualization orbit readout
Latitude
Unknown
Longitude
Unknown
Altitude
Unknown
Speed
Unknown
Apparent Right ascension
Unknown
Apparent Declination
Unknown
Sunlit
N/A
Visualization observer readout
Local Sidereal Time
04:58:48
Azimuth
Unknown
Elevation
Unknown
Doppler factor
Unknown
Orbital elements
Apogee altitude
903.719 km
Perigee altitude
754.507 km
Semi-major axis
7,207.25 km
Eccentricity
0.01035
Inclination
86.4323°
RAAN
181.1851°
Arg. of periapsis
114.9637°
True anomaly
274.57083°
Mean anomaly
275.7525°
Eccentric anomaly
275.16181°
Mean motion
3.54723 °/min
Orbital period
101.49 mins
BSTAR
0.00039364

Documentation

Showing up to 5 results
|